Weather History for Fort Campbell, KY

Change the Weather History Date:

Saturday, June 22, 2013

  Actual Average Record
Temperature  
Mean Temperature 78 °F -  
Max Temperature 87 °F 83 °F 95 °F (1998)
Min Temperature 68 °F 65 °F 55 °F (2003)
Cooling Degree Days 12    
Growing Degree Days 28 (Base 50)    
Moisture  
Dew Point 70 °F    
Average Humidity 79    
Maximum Humidity 100    
Minimum Humidity 51    
Precipitation  
Precipitation 0.00 in - - ()
Sea Level Pressure  
Sea Level Pressure 30.13 in    
Wind  
Wind Speed 4 mph (South)    
Max Wind Speed 13 mph    
Max Gust Speed -    
Visibility 10 miles    
Events Rain    
Averages and records for this station are not official NWS values.
T = Trace of Precipitation, MM = Missing Value Source: NWS Daily Summary

Daily Weather History Graph

Daily Weather History Graph

Search for Another Location

Airport:

Trip Planner

Search our weather history database for the weather conditions in past years. The results will help you decide how hot, cold, wet, or windy it might be!

Date:

Astronomy

Jun. 22, 2013 Rise Set
Actual Time 5:31 AM CDT 8:12 PM CDT
Civil Twilight 5:01 AM CDT 8:42 PM CDT
Nautical Twilight 4:23 AM CDT 9:21 PM CDT
Astronomical Twilight 3:40 AM CDT 10:03 PM CDT
Moon 7:28 PM CDT 4:42 AM CDT
Length of Visible Light 15h 41m
Length of Day
14h 40m
Waxing Gibbous, 99% of the Moon is Illuminated
Jun 22
Waxing Gibbous
Jun 23
Full
Jun 29
Last Quarter
Jul 8
New
Jul 15
First Quarter

Hourly Weather History & Observations

Time (CDT) Temp. Heat Index Dew Point Humidity Pressure Visibility Wind Dir Wind Speed Gust Speed Precip Events Conditions
12:58 AM 74.3 °F - 74.3 °F 100% 30.12 in 10.0 mi SSE 5.8 mph - N/A   Clear
1:58 AM 72.0 °F - 72.0 °F 100% 30.12 in 10.0 mi Calm Calm - N/A   Clear
2:58 AM 71.4 °F - 71.4 °F 100% 30.12 in 10.0 mi SE 2.3 mph - N/A   Clear
3:58 AM 70.0 °F - 70.0 °F 100% 30.11 in 10.0 mi ESE 3.5 mph - N/A   Clear
4:58 AM 69.3 °F - 69.3 °F 100% 30.13 in 10.0 mi ESE 1.2 mph - N/A   Clear
5:50 AM 68.0 °F - 68.0 °F 100% 30.14 in 10.0 mi SSE 1.2 mph - N/A   Light Drizzle
5:58 AM 68.9 °F - 68.9 °F 100% 30.14 in 10.0 mi SE 2.3 mph - 0.00 in   Light Drizzle
6:00 AM 69.8 °F - 69.8 °F 100% 30.15 in 10.0 mi SE 2.3 mph - N/A   Clear
6:04 AM 69.8 °F - 69.8 °F 100% 30.15 in 10.0 mi SE 2.3 mph - N/A Rain Light Rain
6:36 AM 71.6 °F - 71.6 °F 100% 30.16 in 10.0 mi SSE 2.3 mph - N/A   Clear
6:37 AM 71.6 °F - 71.6 °F 100% 30.16 in 10.0 mi SSE 2.3 mph - N/A Rain Light Rain
6:48 AM 71.6 °F - 71.6 °F 100% 30.16 in 10.0 mi SSE 4.6 mph - N/A   Clear
6:58 AM 72.7 °F - 72.1 °F 98% 30.15 in 10.0 mi SSE 4.6 mph - 0.00 in   Clear
7:58 AM 77.0 °F - 70.7 °F 81% 30.17 in 10.0 mi South 4.6 mph - N/A   Clear
8:58 AM 80.2 °F 83.5 °F 70.2 °F 71% 30.19 in 10.0 mi South 5.8 mph - N/A   Clear
9:58 AM 82.9 °F 87.2 °F 70.3 °F 66% 30.18 in 10.0 mi South 6.9 mph - N/A   Clear
10:58 AM 85.1 °F 89.8 °F 70.3 °F 61% 30.19 in 10.0 mi SSW 6.9 mph - N/A   Clear
11:58 AM 85.8 °F 89.1 °F 68.0 °F 55% 30.17 in 10.0 mi South 9.2 mph - N/A   Clear
12:58 PM 85.6 °F 89.4 °F 68.9 °F 57% 30.16 in 10.0 mi South 9.2 mph - N/A   Scattered Clouds
1:19 PM 86.0 °F 90.4 °F 69.8 °F 58% 30.16 in 10.0 mi South 12.7 mph - N/A   Partly Cloudy
1:58 PM 86.9 °F 90.6 °F 68.2 °F 54% 30.14 in 10.0 mi SSW 6.9 mph - N/A   Clear
2:58 PM 87.1 °F 90.6 °F 68.2 °F 53% 30.11 in 10.0 mi SSW 9.2 mph - N/A   Clear
3:58 PM 87.4 °F 91.5 °F 68.7 °F 54% 30.08 in 10.0 mi SSW 9.2 mph - N/A   Partly Cloudy
4:58 PM 87.1 °F 89.9 °F 66.9 °F 51% 30.07 in 10.0 mi SW 8.1 mph - N/A   Partly Cloudy
5:58 PM 86.5 °F 89.6 °F 67.8 °F 53% 30.07 in 10.0 mi SW 6.9 mph - N/A   Partly Cloudy
6:58 PM 84.6 °F 88.2 °F 68.9 °F 59% 30.07 in 10.0 mi SW 6.9 mph - N/A   Clear
7:58 PM 81.9 °F 85.2 °F 69.1 °F 65% 30.08 in 10.0 mi SW 3.5 mph - N/A   Clear
8:58 PM 81.1 °F 84.4 °F 69.1 °F 67% 30.09 in 10.0 mi WSW 3.5 mph - N/A   Clear
9:58 PM 77.4 °F - 72.1 °F 84% 30.10 in 10.0 mi SSW 4.6 mph - N/A   Partly Cloudy
10:58 PM 77.2 °F - 71.1 °F 81% 30.09 in 10.0 mi South 4.6 mph - N/A   Clear
11:58 PM 77.5 °F - 69.4 °F 76% 30.07 in 10.0 mi South 6.9 mph - N/A   Clear